Location: Chiroubles
(46.1812°N, 4.6660°E)
Time: 06:41:17
(UTC+00:00)

Transit 4A - Pass Details

Date: 08 December 2020
Orbit: 864 x 980 km, 66.8° (Epoch: 25 January)

Event Time Altitude Azimuth Distance (km) Brightness Sun altitude
Rises 14:41:06 0° 323° (NW) 3,676 10.9 9.0°
Reaches altitude 10° 14:43:45 10° 319° (NW) 2,715 10.3 8.7°
Maximum altitude 14:49:53 54° 245° (WSW) 1,146 9.2 7.9°
Drops below altitude 10° 14:55:50 10° 169° (S) 2,629 10.8 7.2°
Sets 14:58:21 0° 165° (SSE) 3,550 11.4 6.9°
